EHI
13 20 25 19 12 9 6 5 5 5 6 5 3 1 0 0 1 1 1 0 0 0 0 0 0 0 0 0 0 0 0 0 0 0 0 0 0 0 0 0 0 0 0
16 22 25 21 14 9 5 5 5 5 6 6 4 1 0 0 0 0 0 0 0 0 0 0 0 0 0 0 0 0 0 0 0 0 0 0 0 0 0 0 0 0 0
18 22 25 23 16 9 5 4 5 5 5 5 4 2 0 0 0 0 0 0 0 0 0 0 0 0 0 0 0 0 0 0 0 0 0 0 0 0 0 0 0 0 0
16 20 24 23 17 11 6 3 3 3 3 4 3 2 0 0 0 0 0 0 0 0 0 0 0 0 0 0 0 0 0 0 0 0 0 0 0 0 0 0 0 0 0
13 17 22 24 19 13 8 3 1 1 2 3 3 1 0 0 0 0 0 0 0 0 0 0 0 0 0 0 0 0 0 0 0 0 0 0 0 0 0 0 0 0 0
11 14 21 24 20 14 9 4 1 0 1 2 2 1 0 0 0 0 0 0 0 0 0 0 0 0 0 0 0 0 0 0 0 0 0 0 0 0 0 0 0 0 0
11 14 20 24 21 15 10 6 2 0 0 1 1 1 0 1 1 1 0 0 0 1 1 0 0 0 0 0 0 0 0 0 0 0 0 0 0 0 0 0 0 0 0
13 14 18 21 19 14 10 8 4 1 0 0 1 1 1 1 2 1 0 0 0 1 1 0 0 0 0 0 0 0 0 0 0 0 0 0 0 0 0 0 0 0 0
14 14 15 15 13 11 9 8 5 1 0 0 0 1 1 2 3 2 1 0 0 0 0 0 0 0 0 0 0 0 0 0 0 0 0 0 0 0 0 0 0 0 0
14 13 11 9 7 7 7 6 3 1 0 0 0 1 1 1 2 2 1 0 0 0 0 0 0 0 0 0 0 0 0 0 0 0 0 0 0 0 0 0 0 0 0
12 10 7 5 5 5 5 3 1 0 0 0 0 0 0 0 1 1 0 0 0 0 0 0 0 0 0 0 0 0 0 0 0 0 0 0 0 0 0 0 0 0 0
8 6 4 4 4 5 4 1 1 1 0 0 0 0 0 0 0 0 0 0 0 0 0 0 0 0 0 0 0 0 0 0 0 0 0 0 0 0 0 0 0 0 0
4 3 3 3 3 4 3 1 1 2 1 0 0 0 0 1 1 1 0 0 0 0 0 0 0 0 0 0 0 0 0 0 0 0 0 0 0 0 0 0 0 0 0
1 1 2 3 3 2 2 1 2 3 1 0 0 0 0 1 1 1 0 0 0 0 0 0 0 0 0 0 0 0 0 0 0 0 0 0 0 0 0 0 0 0 0
0 0 1 2 1 1 1 1 2 2 1 0 0 0 0 0 0 0 0 0 0 0 0 0 0 0 0 0 0 0 0 0 0 0 0 0 0 0 0 0 0 0 0
0 0 0 0 0 0 0 0 1 2 1 0 0 0 0 0 0 0 0 0 0 0 0 0 0 0 0 0 0 0 0 0 0 0 0 0 0 0 0 0 0 0 0
0 0 0 0 0 0 0 0 1 1 1 0 0 0 0 0 0 0 0 0 0 0 0 0 0 0 0 0 0 0 0 0 0 0 0 0 0 0 0 0 0 0 0
0 0 0 0 0 0 0 0 0 0 0 0 0 0 0 0 0 0 0 0 0 0 0 0 0 0 0 0 0 0 0 0 0 0 0 0 0 0 0 0 0 0 0
0 0 0 0 0 0 0 0 0 0 0 0 0 0 0 0 0 0 0 0 0 0 0 0 0 0 0 0 0 0 0 0 0 0 0 0 0 0 0 0 0 0 0
0 0 0 0 0 0 0 0 0 0 0 0 0 0 0 0 0 0 0 0 0 0 0 0 0 0 0 0 0 0 0 0 0 0 0 0 0 0 0 0 0 0 0
0 0 0 0 0 0 0 0 0 0 0 0 0 0 0 0 0 0 0 0 0 0 0 0 0 0 0 0 0 0 0 0 0 0 0 0 0 0 0 0 0 0 0
0 0 0 0 0 0 0 0 0 0 0 0 0 0 0 0 0 0 0 0 0 0 0 0 0 0 0 0 0 0 0 0 0 0 0 0 0 0 0 0 0 0 0
0 0 0 0 0 0 0 0 0 0 0 0 0 0 0 0 0 0 0 0 0 0 0 0 0 0 0 0 0 0 0 0 0 0 0 0 0 0 0 0 0 0 0
0 0 0 0 0 0 0 0 0 0 0 0 0 0 0 0 0 0 0 0 0 0 0 0 0 0 0 0 0 0 0 0 0 0 0 0 0 0 0 0 0 0 0
0 0 0 0 0 0 0 0 0 0 0 0 0 0 0 0 0 0 0 0 0 0 0 0 0 0 0 0 0 0 0 0 0 0 0 0 0 0 0 0 0 0 0
0 0 0 0 0 0 0 0 0 0 0 0 0 0 0 0 0 0 0 0 0 0 0 0 0 0 0 0 0 0 0 0 0 0 0 0 0 0 0 0 0 0 0
Wind_Speed
4 6 6 5 4 5 5 6 7 7 7 7 8 8 8 8 9 9 8 9 9 9 9 9 10 10 10 11 11 11 11 11 11 11 11 11 11 11 12 11 10 8 12
4 5 6 5 4 4 5 5 6 7 7 7 8 8 8 8 9 9 9 8 8 8 9 9 9 10 10 10 10 10 10 9 9 9 8 8 9 11 12 12 11 7 12
4 5 6 5 4 3 4 5 5 6 7 7 8 8 8 8 8 8 8 8 8 8 9 9 9 10 10 10 9 9 8 7 5 3 4 4 7 10 11 11 10 10 10
4 5 4 5 4 3 4 5 5 6 7 7 8 8 8 8 8 8 8 9 8 9 9 9 9 9 9 9 9 8 6 4 2 1 2 5 6 9 10 10 9 9 9
4 4 4 5 3 3 4 4 5 6 7 7 8 8 8 8 8 8 8 8 9 9 9 9 9 9 9 9 8 7 4 2 2 2 4 6 5 9 10 10 9 9 9
3 3 4 4 4 3 3 4 5 6 7 7 8 8 8 8 8 8 8 8 9 9 9 9 9 9 9 9 8 6 3 2 3 2 5 6 5 9 10 10 10 10 9
2 2 4 4 4 3 3 4 5 5 7 7 8 9 9 8 8 8 8 8 9 9 9 9 9 9 9 8 7 5 3 3 1 4 6 6 6 10 10 9 9 10 10
2 2 3 4 4 4 3 4 5 6 6 7 8 8 9 9 9 9 8 8 9 9 9 9 9 9 9 8 6 4 3 4 3 6 6 6 8 10 10 10 10 10 10
2 2 2 3 3 4 3 3 4 5 6 7 7 7 8 9 9 9 9 9 9 9 9 9 9 9 9 8 5 3 3 4 3 4 7 5 8 10 10 9 9 9 9
2 2 1 2 2 3 3 4 4 4 5 7 7 6 7 8 8 8 8 8 9 9 9 9 9 9 8 7 4 2 3 3 3 5 4 6 10 10 10 9 9 9 9
1 2 1 1 2 2 3 4 4 5 6 7 6 7 6 5 5 5 7 8 9 9 9 9 9 8 7 5 3 1 2 1 5 4 4 8 10 10 9 8 8 8 8
1 0 1 1 1 2 2 3 2 3 4 4 4 5 3 3 4 6 7 8 8 8 8 8 8 7 5 2 1 0 1 3 4 4 4 9 9 9 9 8 8 8 8
1 0 1 2 2 2 2 2 2 2 2 3 4 3 3 4 3 4 3 4 4 5 3 4 4 2 2 2 2 1 2 3 4 3 4 8 9 8 8 8 8 7 8
1 0 1 1 2 2 2 1 2 2 2 2 3 4 3 3 3 3 3 3 3 2 3 2 2 3 3 3 3 3 3 3 4 3 4 8 8 8 8 8 8 8 7
1 1 1 1 2 2 2 1 2 2 2 2 2 3 4 3 3 3 2 3 3 2 2 2 2 2 3 3 3 3 3 4 5 5 4 8 8 8 8 8 8 8 8
1 1 1 1 2 3 2 1 2 2 2 2 2 3 4 3 3 3 3 3 3 2 2 2 3 3 2 3 3 3 4 4 5 5 4 5 8 8 8 8 8 8 8
1 1 1 1 2 2 2 2 3 2 2 2 2 3 4 4 3 3 3 3 2 2 2 3 3 3 3 3 3 4 4 4 4 5 4 3 4 7 8 8 8 8 8
1 1 1 1 1 2 3 3 3 3 2 2 2 2 4 4 3 3 3 3 3 2 3 3 3 3 3 3 3 3 3 3 4 4 4 4 3 4 6 9 8 8 7
2 2 2 2 2 2 3 3 3 3 3 2 2 2 3 4 3 3 3 3 3 3 3 3 3 3 3 3 3 3 3 3 3 4 5 5 4 4 4 6 8 7 7
3 3 3 4 3 3 3 3 3 3 3 3 2 2 4 3 3 3 3 3 3 3 3 3 4 4 3 3 4 3 3 2 3 3 4 4 3 3 3 3 3 4 6
3 4 4 4 3 3 2 2 2 2 3 3 3 3 3 4 3 2 2 3 3 3 3 4 4 5 3 3 3 2 2 2 2 2 2 3 3 3 3 2 2 2 2
3 3 4 4 4 4 2 2 2 2 2 3 3 3 3 3 3 2 3 3 3 3 3 4 4 3 2 2 2 2 2 1 1 1 2 2 2 2 2 1 2 2 2
2 3 4 4 4 4 3 3 3 2 2 2 2 2 3 4 3 2 2 3 3 3 3 4 4 3 3 1 1 2 3 2 1 0 1 2 2 2 1 1 2 1 2
2 3 4 4 4 5 4 3 3 2 2 2 2 2 3 4 4 3 3 3 2 2 3 3 3 2 3 2 1 1 1 2 3 1 1 1 2 2 2 1 1 1 2
4 3 4 4 4 5 4 4 3 2 3 2 3 4 3 3 3 3 3 3 2 2 3 2 2 2 2 2 1 1 1 1 1 3 2 1 1 1 1 1 1 1 1
4 3 3 4 4 5 4 4 3 3 4 4 4 3 3 2 2 3 3 3 2 2 2 2 2 3 2 2 1 1 1 1 1 1 2 1 1 2 1 1 1 1 1
Wind_Direction
87 115 116 103 103 119 125 128 136 135 134 134 132 129 131 128 125 122 118 115 113 109 106 106 103 99 96 92 89 86 82 85 88 85 81 80 81 80 74 72 75 73 74
93 118 118 105 111 122 130 131 132 136 136 135 136 133 132 134 131 128 124 122 120 116 111 110 108 105 100 96 93 90 89 92 97 98 93 83 80 77 74 69 72 75 75
82 117 123 107 103 122 128 135 136 140 144 141 140 138 136 136 136 133 130 127 123 119 115 111 108 107 103 100 97 95 93 97 103 109 115 105 87 80 78 74 74 78 77
79 112 120 114 109 123 132 134 143 148 148 145 141 142 139 137 139 136 134 130 125 118 115 112 109 110 108 105 103 102 98 94 76 1 107 99 89 85 82 77 77 77 78
67 102 116 117 116 126 142 143 148 153 153 149 144 145 143 143 140 139 135 129 126 120 116 115 114 114 111 108 105 104 100 70 7 341 83 88 86 87 82 78 76 76 76
63 88 124 129 125 131 149 155 154 157 159 153 150 148 146 142 140 136 133 128 125 123 121 120 118 116 113 108 105 102 93 22 337 59 75 85 88 89 84 79 76 73 73
63 85 141 142 137 141 156 165 164 159 162 159 159 155 151 143 139 135 130 129 129 127 125 125 121 119 114 109 104 95 52 351 316 81 78 78 87 91 86 79 75 71 71
72 89 138 151 145 145 152 162 168 162 161 162 159 158 151 145 140 135 131 133 134 131 129 125 120 117 113 110 103 85 23 349 42 90 83 77 90 89 84 79 74 70 68
67 89 124 152 144 138 142 144 152 158 157 155 152 151 146 142 140 136 132 134 130 129 128 125 122 117 109 106 100 70 13 5 27 77 86 79 86 87 84 80 75 72 71
68 78 114 154 147 141 136 123 122 128 138 143 139 133 133 135 135 132 128 129 128 125 122 123 121 115 111 108 100 50 354 352 73 73 78 85 84 84 81 78 76 74 73
23 84 79 145 143 142 145 135 124 121 125 134 139 135 138 139 130 121 120 121 123 123 124 124 122 121 118 119 115 31 338 71 87 77 73 90 89 87 84 81 79 77 75
301 94 112 98 115 131 144 140 137 137 141 142 139 160 163 133 122 120 115 120 122 121 125 132 135 135 134 140 152 147 17 76 89 83 81 95 95 91 86 83 82 80 79
265 149 96 98 87 101 123 144 140 132 141 138 146 153 129 117 118 121 123 124 126 131 129 138 147 161 134 120 116 101 64 73 83 78 80 94 98 95 91 84 82 82 81
281 169 109 113 109 105 110 133 138 126 126 122 128 128 129 128 126 135 141 146 148 140 137 153 158 137 128 123 121 107 84 82 91 85 79 89 93 95 92 88 84 81 81
237 213 137 120 119 112 109 149 139 122 121 119 112 117 113 128 131 130 125 129 122 121 137 144 130 128 123 115 103 97 89 90 92 88 80 83 88 92 90 85 85 83 81
220 220 153 129 115 106 107 121 120 116 110 114 111 102 100 108 128 128 118 116 110 116 130 127 111 105 96 96 93 91 85 90 93 98 97 83 84 87 86 82 80 78 77
187 159 168 137 117 116 115 110 96 96 107 115 116 104 101 102 119 131 123 118 118 115 103 91 89 87 92 89 87 81 76 81 91 96 97 99 90 79 82 82 76 71 69
151 134 132 119 116 120 111 96 95 95 89 96 110 111 100 102 113 119 120 120 122 115 102 100 100 93 89 88 84 74 71 69 73 84 84 84 93 90 79 78 72 69 65
126 111 110 90 84 105 105 98 96 94 88 80 84 101 100 102 106 114 115 117 118 111 105 109 100 106 99 90 92 83 73 73 76 84 87 76 74 93 92 82 74 68 63
113 107 108 93 79 98 105 102 97 94 86 77 67 80 94 93 92 104 115 110 113 113 109 109 105 98 104 106 96 83 79 79 78 80 88 87 80 85 94 96 85 73 70
103 114 112 103 98 97 104 109 106 110 102 91 79 72 79 86 87 103 113 113 119 128 129 123 115 109 104 103 93 84 66 71 89 95 94 99 97 90 84 95 101 89 79
104 112 118 115 112 105 97 102 102 108 105 102 95 83 80 79 81 99 117 116 115 124 126 122 118 118 122 120 124 129 117 27 347 115 112 114 118 108 105 103 101 97 95
117 130 129 133 126 112 114 102 91 84 88 86 92 90 86 87 79 78 97 112 117 123 135 137 133 127 144 151 109 130 145 172 176 232 161 140 139 128 137 127 110 93 98
138 132 125 127 123 123 124 124 120 125 127 131 130 116 101 95 90 81 82 90 108 116 124 136 125 126 133 148 120 79 107 129 139 149 272 202 159 154 167 155 129 116 101
132 131 127 130 132 131 136 142 146 157 132 122 115 113 104 98 100 97 90 89 97 110 120 126 122 120 126 141 144 137 90 68 108 140 187 230 252 219 178 158 149 154 129
131 136 138 140 144 145 147 148 164 160 140 135 134 132 129 121 111 116 115 110 110 108 119 135 139 136 133 136 140 138 145 143 162 148 170 192 218 238 202 177 168 175 171